Weather History for KEKN - May, 2013

Change the Weather History Date:

Wednesday, May 22, 2013

  Actual Average Record
Temperature  
Mean Temperature 65 °F 60 °F  
Max Temperature 75 °F 72 °F 90 °F (1911)
Min Temperature 54 °F 47 °F 26 °F (2002)
Degree Days  
Heating Degree Days 0 6  
Month to date heating degree days 145 189  
Since 1 July heating degree days 5703 5752  
Cooling Degree Days 0 1  
Month to date cooling degree days 9 9  
Year to date cooling degree days 12 12  
Growing Degree Days 14 (Base 50)    
Moisture  
Dew Point 59 °F    
Average Humidity 83    
Maximum Humidity 100    
Minimum Humidity 66    
Precipitation  
Precipitation 0.48 in 0.17 in 1.18 in (1999)
Month to date precipitation 3.32 3.61  
Year to date precipitation 15.90 17.70  
Snow  
Snow 0.00 in - - ()
Month to date snowfall 0.0  
Since 1 September snowfall 77.5  
Snow Depth 0.00 in    
Sea Level Pressure  
Sea Level Pressure 29.96 in    
Wind  
Wind Speed 2 mph (SSW)    
Max Wind Speed 22 mph    
Max Gust Speed 31 mph    
Visibility 9 miles    
Events Rain    
T = Trace of Precipitation, MM = Missing Value Source: NWS Daily Summary

Daily Weather History Graph

Daily Weather History Graph

Search for Another Location

Airport or City:

Trip Planner

Search our weather history database for the weather conditions in past years. The results will help you decide how hot, cold, wet, or windy it might be!

Date:

Astronomy

May. 22, 2013 Rise Set
Actual Time 6:01 AM EDT 8:31 PM EDT
Civil Twilight 5:30 AM EDT 9:02 PM EDT
Nautical Twilight 4:52 AM EDT 9:40 PM EDT
Astronomical Twilight 4:10 AM EDT 10:22 PM EDT
Moon 5:53 PM EDT (5/22) 4:02 AM EDT (5/22)
Length of Visible Light 15h 31m
Length of Day
14h 30m
Waxing Gibbous, 91% of the Moon is Illuminated
May 22
Waxing Gibbous
May 25
Full
May 31
Last Quarter
Jun 8
New
Jun 16
First Quarter

Hourly Weather History & Observations

Time (EDT) Temp. Dew Point Humidity Pressure Visibility Wind Dir Wind Speed Gust Speed Precip Events Conditions
12:51 AM 69.1 °F 57.0 °F 65% 29.98 in 10.0 mi SSE 9.2 mph - N/A   Partly Cloudy
1:51 AM 64.9 °F 57.0 °F 75% 29.95 in 10.0 mi South 4.6 mph - N/A   Clear
2:51 AM 63.0 °F 57.0 °F 81% 29.93 in 10.0 mi WSW 3.5 mph - N/A   Clear
3:51 AM 59.0 °F 55.9 °F 90% 29.93 in 10.0 mi Calm Calm - N/A   Clear
4:51 AM 55.9 °F 55.0 °F 97% 29.94 in 10.0 mi Calm Calm - N/A   Clear
5:51 AM 54.0 °F 53.1 °F 97% 29.96 in 9.0 mi Calm Calm - N/A   Clear
6:51 AM 55.9 °F 54.0 °F 93% 29.98 in 10.0 mi Calm Calm - N/A   Mostly Cloudy
7:51 AM 62.1 °F 57.0 °F 84% 29.98 in 10.0 mi Calm Calm - N/A   Clear
8:51 AM 64.9 °F 57.9 °F 78% 29.99 in 10.0 mi Calm Calm - N/A   Clear
9:51 AM 66.9 °F 59.0 °F 76% 29.98 in 10.0 mi West 3.5 mph - N/A   Overcast
10:51 AM 66.0 °F 60.1 °F 81% 30.01 in 10.0 mi South 5.8 mph - 0.01 in Rain Light Rain
11:51 AM 69.1 °F 61.0 °F 75% 29.99 in 10.0 mi SSE 4.6 mph - 0.00 in   Partly Cloudy
12:19 PM 66.2 °F 59.0 °F 78% 30.02 in 1.8 mi SW 8.1 mph 21.9 mph 0.04 in Rain Heavy Rain
12:33 PM 66.2 °F 62.6 °F 88% 30.00 in 4.0 mi Calm Calm - 0.27 in Rain Rain
12:51 PM 70.0 °F 64.0 °F 81% 29.97 in 10.0 mi Calm Calm - 0.27 in   Mostly Cloudy
1:51 PM 73.0 °F 64.9 °F 76% 29.95 in 10.0 mi SSW 5.8 mph - N/A   Clear
2:19 PM 64.4 °F 55.4 °F 73% 30.00 in 2.5 mi SW 9.2 mph 27.6 mph 0.11 in Rain Heavy Rain
2:28 PM 64.4 °F 57.2 °F 77% 29.99 in 4.0 mi Calm Calm - 0.14 in Rain Rain
2:51 PM 63.0 °F 60.1 °F 90% 29.96 in 10.0 mi Calm Calm - 0.17 in Rain Light Rain
3:51 PM 70.0 °F 61.0 °F 73% 29.91 in 10.0 mi SSW 3.5 mph - 0.00 in   Clear
4:51 PM 72.0 °F 61.0 °F 68% 29.92 in 10.0 mi South 6.9 mph - N/A   Clear
5:51 PM 72.0 °F 61.0 °F 68% 29.91 in 10.0 mi Calm Calm - 0.00 in   Mostly Cloudy
6:51 PM 68.0 °F 60.1 °F 76% 29.95 in 10.0 mi SSW 11.5 mph 26.5 mph 0.00 in Rain Light Rain
7:51 PM 64.9 °F 62.1 °F 90% 29.94 in 10.0 mi Calm Calm - 0.03 in Rain Light Rain
8:51 PM 63.0 °F 61.0 °F 93% 29.92 in 10.0 mi Calm Calm - 0.00 in Rain Light Rain
9:51 PM 63.0 °F 60.1 °F 90% 29.94 in 10.0 mi SSE 3.5 mph - 0.00 in   Mostly Cloudy
10:31 PM 62.6 °F 60.8 °F 94% 29.97 in 10.0 mi Calm Calm - N/A   Overcast
10:51 PM 63.0 °F 61.0 °F 93% 29.93 in 10.0 mi Calm Calm - 0.00 in Rain Light Rain
11:51 PM 63.0 °F 60.1 °F 90% 29.90 in 10.0 mi Calm Calm - 0.00 in   Scattered Clouds